Regional Weather Roundup
Issued by NWS

Home | Current Version | Previous Version | Text Only | Print | Product List | Glossary On
Versions: 1 2 3 4 5 6 7 8 9 10 11 12 13 14 15 16 17 18 19 20 21 22 23 24 25 26 27
000
ASUS42 KTBW 222218
RWRFL
FLORIDA REGIONAL WEATHER ROUNDUP
NATIONAL WEATHER SERVICE TAMPA BAY RUSKIN FL
600 PM EDT TUE AUG 22 2017

NOTE: "FAIR" INDICATES FEW OR NO CLOUDS BELOW 12,000 FEET WITH NO
SIGNIFICANT WEATHER AND/OR OBSTRUCTIONS TO VISIBILITY.

FLZ001>010-012>015-112-114-115-222300-
PANHANDLE FLORIDA

CITY           SKY/WX    TMP DP  RH WIND       PRES   REMARKS
PENSACOLA      CLOUDY    84  77  79 S6        30.03F
PENSACOLA NAS  CLOUDY    84  75  74 SW5       30.02F
MILTON NAS     PTSUNNY   84  77  79 S9        30.03
CRESTVIEW      CLOUDY    84  77  79 VRB3      30.04F
DUKE FIELD     PTSUNNY   85  74  69 CALM      30.02F
VALPARAISO     MOSUNNY   86  74  68 W5        30.01F
MARY ESTHER    SUNNY     84  74  70 SW3       30.01F
PANAMA CITY    FAIR      90  72  55 SW9       30.01F HX  97
TYNDALL AFB    SUNNY     89  76  66 S12       30.02F HX  99
APALACHICOLA   MOSUNNY   87  79  76 VRB5      30.03F HX 101

STATION/POSITION SKY/WX   TEMP    WIND        PRES    WAVE   SWELL
                          AIR SEA DIR/SP/G            HT/PER HT/PER
                          (F)     (DEG/KT/KT) (MB)    (FT/S) (FT/S)
30.1N   87.6W              83 87  150/  8/ 10 1016.6F   2/ 7   2/ 7
29.2N   88.2W              80 88   CALM  /  2 1016.6F   2/ 7   2/ 7
28.8N   86.0W              86 88   90/  4/  6 1016.3F   2/ 6   2/ 6
PANAMA CITY BEAC           87     220/  6/  8 1017.1F
TOWER C                    86                 1017.1F
28.5N   84.5W              85 87   40/  6/  8 1016.5F   2/ 5   2/ 5

$$
FLZ011-016>038-118-127-128-134-139-239-222300-
NORTH FLORIDA

CITY           SKY/WX    TMP DP  RH WIND       PRES   REMARKS
MARIANNA       PTSUNNY   87  74  64 S17G23    30.02R HX  95
TALLAHASSEE    CLOUDY    87  78  74 S7        30.03F HX 100
PERRY          CLOUDY    81  78  91 CALM      30.04F THUNDER
LIVE OAK       MOSUNNY   93  72  49 CALM      30.02F HX 100
CROSS CITY     SUNNY     90  70  52 CALM      30.06S HX  95
LAKE CITY      FAIR      90  72  55 SW6       30.02S HX  96
GAINESVILLE    SUNNY     91  69  48 SE8       30.04F HX  96
WILLISTON      SUNNY     95  68  41 CALM      30.02S HX  99
PALATKA        FAIR      90  73  58 E6        30.03S HX  98
MAYPORT NAS    MOSUNNY   87  74  64 SE10      30.03F HX  95
JACKSONVILLE   MOSUNNY   89  71  55 E13       30.01F HX  95
JAX NAS        MOSUNNY   92  71  50 SE9       30.02F HX  98
JAX CECIL      MOSUNNY   91  73  55 CALM      30.01F HX 100
FERNANDINA BEA FAIR      86  72  62 SE8       30.03S
ST AUGUSTINE   SUNNY     86  75  69 E13       30.04S HX  95
PALM COAST     SUNNY     88  75  66 E10       30.03F HX  97

STATION/POSITION SKY/WX   TEMP    WIND        PRES    WAVE   SWELL
                          AIR SEA DIR/SP/G            HT/PER HT/PER
                          (F)     (DEG/KT/KT) (MB)    (FT/S) (FT/S)
SHELL POINT      NOT AVBL
KEATON BEACH               85     280/  7/  9 1016.5F
CEDAR KEY                  88     300/  6/  8 1016.6F
FERNANDINA                 89 87  140/  4/ 10 1018.1S
30.7N   81.3W                 86                N/A     4/11   2/11
MAYPORT                    86 86  130/  9/ 12 1017.4F
31.4N   80.9W              84 86  160/  8/ 10 1017.1F   4/ 9   3/ 9
ST AUGUSTINE               83 85  110/  8/  9 1017.5F

$$
FLZ040-043>046-052-053-057-058-063-144-222300-
INTERIOR CENTRAL FLORIDA

CITY           SKY/WX    TMP DP  RH WIND       PRES   REMARKS
OCALA          MOSUNNY   92  67  43 E5        30.02S HX  95
THE VILLAGES     N/A     93  73  52 MISG      29.91S HX 102
LEESBURG       SUNNY     91  73  55 E8        30.01F HX  99
SANFORD        SUNNY     90  72  55 NE12      30.01S HX  97
ORLANDO EXEC   MOSUNNY   90  72  55 E13       30.01R HX  97
ORLANDO INTL   MOSUNNY   90  71  53 NE14      30.00S HX  96
KISSIMMEE      PTSUNNY   92  72  51 E13       30.01R HX  99
WINTER HAVEN   MOSUNNY   93  67  42 E13       30.00S HX  96
LAKELAND       MOSUNNY   91  70  49 NE9       29.99F HX  97
BARTOW         FAIR      91  68  46 NE10      29.99F HX  95
SEBRING        FAIR      93  71  49 E14       29.97S HX 100
OKEECHOBEE     MOSUNNY   90  73  58 NE12G17   29.97S HX  98

$$
FLZ041-047-054-059-064-141-147-222300-
EAST CENTRAL FLORIDA

CITY           SKY/WX    TMP DP  RH WIND       PRES   REMARKS
ORMOND BEACH   SUNNY     84  75  74 NE9       30.04R
DAYTONA BEACH  PTSUNNY   88  76  67 E10       30.03S HX  99
DELAND         SUNNY     88  72  58 E9        30.02S
NEW SMYRNA BEA MOSUNNY   90  75  62 NE10      30.05S HX 100
JFK SPACE CTR  SUNNY     86  80  81 E12       30.00F HX 101
TITUSVILLE     MOSUNNY   90  75  62 NE18      30.01F HX 100
CAPE CANAVERAL DRIZZLE   86  77  74 NE9       30.00S HX  97
PATRICK AFB    SUNNY     87  78  74 NE12      30.00S HX 100
MELBOURNE      MOSUNNY   88  78  72 NE13      30.00F HX 101
VERO BEACH     MOSUNNY   83  79  88 NE9       29.99S
FT PIERCE      MOSUNNY   87  77  72 NE9       29.98F HX  99
STUART         MOSUNNY   90  79  70 E9        29.99  HX 105

STATION/POSITION SKY/WX   TEMP    WIND        PRES    WAVE   SWELL
                          AIR SEA DIR/SP/G            HT/PER HT/PER
                          (F)     (DEG/KT/KT) (MB)    (FT/S) (FT/S)
28.5N   80.2W              84 83   80/  8/ 10 1017.4F   4/11   3/11
28.9N   78.5W              85 85  120/  8/ 10 1016.7
TRIDENT PIER               85 86   50/ 10/ 14 1017.9F
28.4N   80.5W                 86                N/A     3/11   2/11
27.5N   80.2W                 85                N/A     3/ 9

$$
FLZ050-056-061-142-242-148-248-149-249-151-251-155-255-
160-260-222300-
WEST CENTRAL FLORIDA

CITY           SKY/WX    TMP DP  RH WIND       PRES   REMARKS
CRYSTAL RIVER  FAIR      95  63  34 NE5       30.00F HX  96
INVERNESS      FAIR      91  72  52 NE5       30.01S HX  98
BROOKSVILLE    SUNNY     93  68  43 NE8       30.00F HX  97
CLEARWATER AIR FAIR      88  73  62 NW9       29.98F HX  96
ST PETE CLEARW MOSUNNY   92  74  55 NW13      29.97F HX 101
TAMPA INTL     PTSUNNY   95  66  38 VRB5      29.98F HX  98
TAMPA EXEC     MOSUNNY   97  70  41 NE6       29.98F HX 103
PLANT CITY     MOSUNNY   95  72  46 E7        30.00F HX 103
MACDILL AFB    SUNNY     93  71  47 E8        29.97F HX 100
PETER O KNIGHT MOSUNNY   97  70  41 NE12      29.98S HX 103
ST PETERSBURG  SUNNY     94  70  45 E8        29.95F HX 100
SARASOTA       SUNNY     92  69  47 NE13      29.94F HX  97
VENICE         FAIR      95  72  46 NE9G17    29.95F HX 103

STATION/POSITION SKY/WX   TEMP    WIND        PRES    WAVE   SWELL
                          AIR SEA DIR/SP/G            HT/PER HT/PER
                          (F)     (DEG/KT/KT) (MB)    (FT/S) (FT/S)
CLEARWATER BEACH           87 89  330/ 14/ 16 1015.5F
MIDDLE TAMPA BAY           91      30/  9/ 11 1015.2F
VENICE                     94 89   20/  7/  9 1014.3F

$$
FLZ066-069-070-075>078-162-262-165-265-222300-
SOUTHWEST FLORIDA AND KEYS

CITY           SKY/WX    TMP DP  RH WIND       PRES   REMARKS
PUNTA GORDA    MOSUNNY   94  72  48 NE13      29.96S HX 102
FT MYERS       LGT RAIN  92  75  57 NE10      29.93F HX 103
SOUTHWEST INTL MOSUNNY   94  72  48 E15       29.94S HX 102
NAPLES         PTSUNNY   92  75  57 E14       29.92F HX 103
IMMOKALEE      PTSUNNY   91  77  62 NE12      29.95S HX 105
MARATHON       CLOUDY    90  79  70 VRB5      29.94F HX 106
KEY WEST NAS   PTSUNNY   87  79  76 SW6       29.94F HX 101
KEY WEST INTL  MOSUNNY   86  78  77 S6        29.95F HX  98

STATION/POSITION SKY/WX   TEMP    WIND        PRES    WAVE   SWELL
                          AIR SEA DIR/SP/G            HT/PER HT/PER
                          (F)     (DEG/KT/KT) (MB)    (FT/S) (FT/S)
NAPLES                        90   60/  3/  8 1013.4F
DRY TORTUGAS               86     320/  1/  2 1014.6F
SAND KEY                   86                 1014.9F

$$
FLZ067-068-071>074-168-172>174-222300-
SOUTHEAST FLORIDA

CITY           SKY/WX    TMP DP  RH WIND       PRES   REMARKS
W PALM BEACH   CLOUDY    86  75  69 E13       29.98F HX  95
BOCA RATON     MOSUNNY   86  79  79 E10       29.97F HX  99
FT LAUDER-EXEC PTSUNNY   87  77  72 E13       29.96F HX  99
FT LAUDERDALE  CLOUDY    87  77  72 E16       29.95F HX  99
POMPANO BEACH  MOSUNNY   88  78  72 E9        29.97F HX 101
PEMBROKE PINES CLOUDY    90  75  61 SE13      29.97F HX 100
OPA LOCKA      PTSUNNY   88  78  72 E13       29.96F HX 101
MIAMI          PTSUNNY   90  75  61 E12       29.96F HX 100
WEST KENDALL   PTSUNNY   89  76  65 E15       29.95F HX 100
HOMESTEAD      SUNNY     89  79  73 E10       29.95F HX 104

STATION/POSITION SKY/WX   TEMP    WIND        PRES    WAVE   SWELL
                          AIR SEA DIR/SP/G            HT/PER HT/PER
                          (F)     (DEG/KT/KT) (MB)    (FT/S) (FT/S)
PORT EVERGLADES            87      90/  8/ 12 1015.3
VIRGINIA KEY               87 88   70/ 10/ 12 1014.3F
LAKE WORTH                        100/ 10/ 11   N/A
FOWEY ROCKS                85 87   90/ 13/ 14 1015.1F
SETTLEMENT POINT           83      60/ 10/ 11 1015.8F

$$





USA.gov is the U.S. government's official web portal to all federal, state and local government web resources and services.